Tracking 20721 objects as of 1-Jun-2020
HD Live streaming from Space Station
objects crossing your sky now

FENGYUN 1C DEB

Track FENGYUN 1C DEB now!
10-day predictions


NORAD ID: 35185
Int'l Code: 1999-025DNR
Perigee: 557.6 km
Apogee: 723.7 km
Inclination: 99.5 °
Period: 97.4 minutes
Semi major axis: 7011 km
RCS: 0.0085 m2 (small)
Launch date: May 10, 1999
Source: People's Republic of China (PRC)
Launch site: Taiyaun Space Center, China (TSC)

Note: This is SATELLITE DEBRIS
aabbcc
Your satellite tracking list
Your tracking list is empty




NASA's NSSDC Master Catalog

Two Line Element Set (TLE):
1 35185U 99025DNR 20149.06039716 +.00000916 +00000-0 +12090-3 0  9996
2 35185 099.5333 234.4541 0118456 043.5308 317.5172 14.78675496657435
Source of the keplerian elements: AFSPC